Edinburgh, IN

8:49 AM EDT on October 01, 2016 (GMT -0400)
Himsel Army Airfld, Nineveh,

Weather History for K1II - May, 2014

Change the Weather History Date:

Saturday, May 17, 2014

  Actual Average (KGEZ) Record (KGEZ)
Temperature  
Mean Temperature 49 °F 63 °F  
Max Temperature 57 °F 74 °F 85 °F (2013)
Min Temperature 41 °F 53 °F 43 °F (2007)
Degree Days  
Heating Degree Days 16 4  
Month to date heating degree days 97  
Since 1 July heating degree days 5357  
Cooling Degree Days 0 2  
Month to date cooling degree days 23  
Year to date cooling degree days 36  
Moisture  
Dew Point 39 °F    
Average Humidity 72    
Maximum Humidity 100    
Minimum Humidity 41    
Precipitation  
Precipitation 0.00 in 0.18 in 0.98 in (1999)
Month to date precipitation 3.11  
Year to date precipitation 15.61  
Sea Level Pressure  
Sea Level Pressure 30.16 in    
Wind  
Wind Speed 4 mph (WNW)    
Max Wind Speed 8 mph    
Max Gust Speed -    
Visibility 10 miles    
Events      
T = Trace of Precipitation, MM = Missing Value Source: NWS Daily Summary

Daily Weather History Graph

Daily Weather History Graph

Search for Another Location

Airport or City:

Trip Planner

Search our weather history database for the weather conditions in past years. The results will help you decide how hot, cold, wet, or windy it might be!

Date:

Astronomy

May. 17, 2014 Rise Set
Actual Time 6:28 AM EDT 8:52 PM EDT
Civil Twilight 5:58 AM EDT 9:23 PM EDT
Nautical Twilight 5:20 AM EDT 10:01 PM EDT
Astronomical Twilight 4:39 AM EDT 10:42 PM EDT
Moon 11:53 PM EDT (5/17) 9:10 AM EDT (5/17)
Length of Visible Light 15h 24m
Length of Day
14h 24m
Waning Gibbous, 89% of the Moon is Illuminated
May 17
Waning Gibbous
May 21
Last Quarter
May 28
New
Jun 5
First Quarter
Jun 13
Full

Hourly Weather History & Observations

Time (EDT) Temp. Windchill Dew Point Humidity Pressure Visibility Wind Dir Wind Speed Gust Speed Precip Events Conditions
12:15 AM 42.8 °F 41.1 °F 41.0 °F 93% 30.08 in 10.0 mi WSW 3.5 mph - N/A   Clear
12:35 AM 42.8 °F 41.1 °F 41.0 °F 93% 30.08 in 10.0 mi WSW 3.5 mph - N/A   Clear
12:55 AM 42.8 °F - 41.0 °F 93% 30.08 in 10.0 mi Calm Calm - N/A   Mostly Cloudy
1:15 AM 42.8 °F 40.1 °F 41.0 °F 93% 30.08 in 10.0 mi West 4.6 mph - N/A   Mostly Cloudy
1:35 AM 41.0 °F 39.0 °F 39.2 °F 93% 30.08 in 10.0 mi WSW 3.5 mph - N/A   Clear
1:55 AM 41.0 °F 39.0 °F 39.2 °F 93% 30.07 in 10.0 mi West 3.5 mph - N/A   Scattered Clouds
2:15 AM 41.0 °F 37.1 °F 39.2 °F 93% 30.08 in 10.0 mi WSW 5.8 mph - N/A   Scattered Clouds
2:35 AM 41.0 °F 38.0 °F 41.0 °F 100% 30.08 in 10.0 mi WSW 4.6 mph - N/A   Mostly Cloudy
2:55 AM 42.8 °F 39.3 °F 41.0 °F 93% 30.08 in 10.0 mi WSW 5.8 mph - N/A   Overcast
3:15 AM 41.0 °F 38.0 °F 41.0 °F 100% 30.07 in 10.0 mi WSW 4.6 mph - N/A   Mostly Cloudy
3:35 AM 41.0 °F 38.0 °F 39.2 °F 93% 30.08 in 10.0 mi WSW 4.6 mph - N/A   Scattered Clouds
3:55 AM 42.8 °F 40.1 °F 41.0 °F 93% 30.08 in 10.0 mi WSW 4.6 mph - N/A   Overcast
4:15 AM 42.8 °F 39.3 °F 41.0 °F 93% 30.08 in 10.0 mi WSW 5.8 mph - N/A   Overcast
4:35 AM 42.8 °F 40.1 °F 41.0 °F 93% 30.09 in 10.0 mi West 4.6 mph - N/A   Overcast
4:55 AM 42.8 °F 38.6 °F 41.0 °F 93% 30.10 in 10.0 mi West 6.9 mph - N/A   Overcast
5:15 AM 42.8 °F 40.1 °F 41.0 °F 93% 30.11 in 10.0 mi WNW 4.6 mph - N/A   Overcast
5:55 AM 42.8 °F 41.1 °F 41.0 °F 93% 30.11 in 10.0 mi WNW 3.5 mph - N/A   Overcast
6:15 AM 44.6 °F 41.4 °F 41.0 °F 87% 30.12 in 10.0 mi WNW 5.8 mph - N/A   Overcast
6:35 AM 42.8 °F 41.1 °F 41.0 °F 93% 30.12 in 10.0 mi West 3.5 mph - N/A   Overcast
6:55 AM 42.8 °F 40.1 °F 41.0 °F 93% 30.13 in 10.0 mi NW 4.6 mph - N/A   Overcast
7:15 AM 42.8 °F 38.6 °F 41.0 °F 93% 30.13 in 10.0 mi WNW 6.9 mph - N/A   Overcast
7:35 AM 44.6 °F 43.1 °F 41.0 °F 87% 30.14 in 10.0 mi WNW 3.5 mph - N/A   Overcast
7:55 AM 44.6 °F 41.4 °F 41.0 °F 87% 30.15 in 10.0 mi NW 5.8 mph - N/A   Mostly Cloudy
8:15 AM 44.6 °F 42.2 °F 39.2 °F 81% 30.15 in 10.0 mi WNW 4.6 mph - N/A   Overcast
8:35 AM 44.6 °F 42.2 °F 39.2 °F 81% 30.16 in 10.0 mi NW 4.6 mph - N/A   Overcast
8:55 AM 46.4 °F 43.5 °F 39.2 °F 76% 30.16 in 10.0 mi NW 5.8 mph - N/A   Mostly Cloudy
9:15 AM 46.4 °F 42.9 °F 39.2 °F 76% 30.17 in 10.0 mi WNW 6.9 mph - N/A   Scattered Clouds
9:35 AM 48.2 °F - 39.2 °F 71% 30.18 in 10.0 mi NNW 6.9 mph - N/A   Scattered Clouds
9:55 AM 50.0 °F - 41.0 °F 71% 30.18 in 10.0 mi NW 5.8 mph - N/A   Mostly Cloudy
10:35 AM 50.0 °F - 39.2 °F 66% 30.18 in 10.0 mi North 6.9 mph - N/A   Scattered Clouds
10:55 AM 51.8 °F - 39.2 °F 62% 30.18 in 10.0 mi NNW 4.6 mph - N/A   Mostly Cloudy
11:15 AM 50.0 °F - 37.4 °F 62% 30.19 in 10.0 mi NNW 5.8 mph - N/A   Overcast
11:35 AM 50.0 °F - 35.6 °F 58% 30.19 in 10.0 mi NW 3.5 mph - N/A   Mostly Cloudy
11:55 AM 51.8 °F - 37.4 °F 58% 30.19 in 10.0 mi SW 4.6 mph - N/A   Mostly Cloudy
12:15 PM 51.8 °F - 37.4 °F 58% 30.19 in 10.0 mi Calm Calm - N/A   Scattered Clouds
12:35 PM 51.8 °F - 39.2 °F 62% 30.19 in 10.0 mi North 6.9 mph - N/A   Mostly Cloudy
12:55 PM 51.8 °F - 37.4 °F 58% 30.19 in 10.0 mi NNW 3.5 mph - N/A   Mostly Cloudy
1:15 PM 51.8 °F - 37.4 °F 58% 30.19 in 10.0 mi North 3.5 mph - N/A   Mostly Cloudy
1:35 PM 51.8 °F - 37.4 °F 58% 30.19 in 10.0 mi NW 6.9 mph - N/A   Overcast
1:55 PM 53.6 °F - 35.6 °F 51% 30.19 in 10.0 mi West 4.6 mph - N/A   Overcast
2:15 PM 57.2 °F - 37.4 °F 48% 30.19 in 10.0 mi NNW 8.1 mph - N/A   Overcast
2:35 PM 53.6 °F - 35.6 °F 51% 30.19 in 10.0 mi NW 5.8 mph - N/A   Overcast
2:55 PM 53.6 °F - 35.6 °F 51% 30.19 in 10.0 mi NW 4.6 mph - N/A   Overcast
3:15 PM 53.6 °F - 33.8 °F 47% 30.19 in 10.0 mi West 3.5 mph - N/A   Overcast
3:35 PM 55.4 °F - 33.8 °F 44% 30.18 in 10.0 mi South 6.9 mph - N/A   Overcast
3:55 PM 53.6 °F - 32.0 °F 44% 30.18 in 10.0 mi WNW 4.6 mph - N/A   Mostly Cloudy
4:15 PM 53.6 °F - 32.0 °F 44% 30.18 in 10.0 mi NW 5.8 mph - N/A   Overcast
4:35 PM 57.2 °F - 33.8 °F 41% 30.18 in 10.0 mi West 6.9 mph - N/A   Mostly Cloudy
4:55 PM 57.2 °F - 33.8 °F 41% 30.18 in 10.0 mi WNW 6.9 mph - N/A   Mostly Cloudy
5:15 PM 55.4 °F - 33.8 °F 44% 30.18 in 10.0 mi West 5.8 mph - N/A   Overcast
5:35 PM 55.4 °F - 35.6 °F 47% 30.18 in 10.0 mi West 5.8 mph - N/A   Overcast
5:55 PM 55.4 °F - 35.6 °F 47% 30.18 in 10.0 mi NW 8.1 mph - N/A   Overcast
6:15 PM 53.6 °F - 33.8 °F 47% 30.19 in 10.0 mi NW 8.1 mph - N/A   Overcast
6:35 PM 53.6 °F - 35.6 °F 51% 30.19 in 10.0 mi NNW 3.5 mph - N/A   Overcast
6:55 PM 53.6 °F - 35.6 °F 51% 30.19 in 10.0 mi NNW 3.5 mph - N/A   Overcast
7:15 PM 53.6 °F - 35.6 °F 51% 30.19 in 10.0 mi NW 3.5 mph - N/A   Overcast
7:35 PM 53.6 °F - 35.6 °F 51% 30.20 in 10.0 mi NW 4.6 mph - N/A   Overcast
7:55 PM 53.6 °F - 37.4 °F 54% 30.20 in 10.0 mi Calm Calm - N/A   Overcast
8:15 PM 53.6 °F - 37.4 °F 54% 30.20 in 10.0 mi Calm Calm - N/A   Overcast
8:35 PM 51.8 °F - 37.4 °F 58% 30.21 in 10.0 mi Calm Calm - N/A   Overcast
8:55 PM 51.8 °F - 42.8 °F 71% 30.21 in 10.0 mi Calm Calm - N/A   Overcast
9:15 PM 50.0 °F - 42.8 °F 76% 30.22 in 10.0 mi Calm Calm - N/A   Mostly Cloudy
9:35 PM 46.4 °F - 41.0 °F 81% 30.22 in 10.0 mi Calm Calm - N/A   Scattered Clouds
9:55 PM 46.4 °F - 41.0 °F 81% 30.23 in 10.0 mi Calm Calm - N/A   Clear
10:15 PM 44.6 °F 43.1 °F 41.0 °F 87% 30.23 in 10.0 mi WSW 3.5 mph - N/A   Scattered Clouds
10:35 PM 44.6 °F - 41.0 °F 87% 30.24 in 10.0 mi Calm Calm - N/A   Overcast
10:55 PM 42.8 °F - 41.0 °F 93% 30.25 in 10.0 mi Calm Calm - N/A   Scattered Clouds
11:15 PM 42.8 °F - 41.0 °F 93% 30.25 in 10.0 mi Calm Calm - N/A   Clear
11:35 PM 42.8 °F - 41.0 °F 93% 30.26 in 10.0 mi Calm Calm - N/A   Clear